Meteo Giornale » Osservazioni meteo Francia » Lille
ore: 20:30 - Osservazioni Meteo Lille
Lat. 50° 34' N Lon. 3° 6' E Alt. 48 metri s.l.m.
19 °C
Poco Nuvoloso
Temp. 24 Ore
15 °C
22 °C
Ovest/Sud-Ovest
20.3 Km/h
Dew point 14 °C
Umidità 72 %
Visibilità 10 Km
Il sole sorge alle ore 07:00
Il sole tramonta alle ore 20:35
| Data e Ora | Cielo e Fenomeni | T °C | DP °C | Um. % | Pres. hPa | Vis. km | Vento km/h | |
|---|---|---|---|---|---|---|---|---|
| Oggi h: 20:30 | Poco Nuvoloso | 19 | 14 | 72 | 1017 | 10 | O/SO 20.3 | |
| Oggi h: 20:00 | Nuvoloso | 19 | 14 | 72 | 1016 | 10 | O/SO 25.9 | |
| Oggi h: 19:30 | Molto Nuvoloso | 20 | 14 | 68 | 1016 | 10 | O/SO 29.6 | |
| Oggi h: 19:00 | Molto Nuvoloso | 21 | 14 | 64 | 1016 | 10 | O/SO 29.6 | |
| Oggi h: 18:30 | Molto Nuvoloso | 21 | 14 | 64 | 1015 | 10 | O/SO 31.5 | |
| Oggi h: 18:00 | Molto Nuvoloso | 22 | 14 | 60 | 1015 | 10 | O/SO 33.3 | |
| Oggi h: 17:30 | Molto Nuvoloso | 22 | 15 | 64 | 1015 | 10 | O/SO 29.6 | |
| Oggi h: 17:00 | Molto Nuvoloso | 22 | 15 | 64 | 1014 | 10 | O/SO 33.3 | |
| Oggi h: 16:30 | Molto Nuvoloso | 21 | 15 | 68 | 1014 | 10 | O/SO 31.5 | |
| Oggi h: 16:00 | Molto Nuvoloso | 20 | 15 | 72 | 1014 | 10 | O/SO 35.2 | |
| Oggi h: 15:30 | Molto Nuvoloso | 21 | 15 | 68 | 1014 | 10 | O/SO 40.7 | |
| Oggi h: 15:00 | Molto Nuvoloso | 20 | 15 | 72 | 1013 | 10 | O/SO 37 | |
| Oggi h: 14:30 | Molto Nuvoloso | 21 | 15 | 68 | 1013 | 10 | O/SO 35.2 | |
| Oggi h: 14:00 | Molto Nuvoloso | 19 | 15 | 77 | 1012 | 10 | SO 35.2 | |
| Oggi h: 13:30 | Molto Nuvoloso | 20 | 14 | 68 | 1012 | 10 | O/SO 33.3 | |
| Oggi h: 13:00 | Molto Nuvoloso | 19 | 15 | 77 | 1012 | 10 | SO 31.5 | |
| Oggi h: 12:30 | Molto Nuvoloso | 17 | 15 | 88 | 1011 | 10 | SO 25.9 | |
| Oggi h: 12:00 | Molto Nuvoloso | 17 | 15 | 88 | 1011 | 10 | SO 22.2 | |
| Oggi h: 11:30 | Pioggia Foschia | 15 | 14 | 93 | 1011 | 1 | SO 25.9 | |
| Oggi h: 11:00 | Pioggia | 16 | 15 | 93 | 1011 | 6 | SO 18.5 | |
| Oggi h: 10:30 | Pioggia | 17 | 15 | 88 | 1011 | 10 | S/SO 25.9 | |
| Oggi h: 10:00 | Molto Nuvoloso | 17 | 14 | 82 | 1010 | 10 | S/SO 29.6 | |
| Oggi h: 09:30 | Molto Nuvoloso | 17 | 15 | 88 | 1010 | 10 | S/SO 25.9 | |
| Oggi h: 09:00 | Sereno | 16 | 14 | 87 | 1010 | 10 | S/SO 25.9 | |
| Oggi h: 08:30 | Molto Nuvoloso | 16 | 14 | 87 | 1010 | 10 | S/SO 25.9 | |
| Oggi h: 08:00 | Pioggia | 16 | 14 | 87 | 1010 | 10 | S/SO 25.9 | |
| Oggi h: 07:30 | Molto Nuvoloso | 17 | 14 | 82 | 1010 | 10 | S/SO 25.9 | |
| Oggi h: 07:00 | Molto Nuvoloso | 17 | 14 | 82 | 1009 | 10 | S 24 | |
| Oggi h: 06:30 | Sereno | 17 | 13 | 77 | 1009 | 10 | S 24 | |
| Oggi h: 06:00 | Sereno | 17 | 13 | 77 | 1009 | 10 | S/SO 25.9 | |
| Oggi h: 05:30 | Sereno | 17 | 14 | 82 | 1009 | 10 | S 22.2 | |
| Oggi h: 05:00 | Sereno | 17 | 14 | 82 | 1009 | 10 | S 24 | |
| Oggi h: 04:30 | Sereno | 17 | 14 | 82 | 1010 | 10 | S 24 | |
| Oggi h: 04:00 | Poco Nuvoloso | 17 | 14 | 82 | 1010 | 10 | S/SO 18.5 | |
| Oggi h: 03:30 | Sereno | 17 | 14 | 82 | 1010 | 10 | S/SO 18.5 | |
| Oggi h: 03:00 | Sereno | 17 | 14 | 82 | 1010 | 10 | S/SO 18.5 | |
| Oggi h: 02:30 | Sereno | 17 | 15 | 88 | 1010 | 10 | S/SO 18.5 | |
| Oggi h: 02:00 | Sereno | 17 | 15 | 88 | 1010 | 10 | S 14.8 | |
| Oggi h: 01:30 | Molto Nuvoloso | 16 | 14 | 87 | 1010 | 10 | S 9.3 | |
| Oggi h: 01:00 | Molto Nuvoloso | 17 | 15 | 88 | 1010 | 10 | S/SO 11.1 | |
| Oggi h: 00:30 | Sereno | 18 | 15 | 82 | 1010 | 10 | S/SO 18.5 | |
| Oggi h: 00:00 | Pioggia | 17 | 15 | 88 | 1009 | 10 | S/SE 11.1 | |
| Ieri h: 23:30 | Sereno | 17 | 14 | 82 | 1010 | 10 | N 5.5 | |
| Ieri h: 23:00 | Sereno | 17 | 14 | 82 | 1010 | 10 | N 5.5 | |
| Ieri h: 22:30 | Molto Nuvoloso | 18 | 14 | 77 | 1010 | 10 | O 11.1 | |
| Ieri h: 22:00 | Molto Nuvoloso | 19 | 14 | 72 | 1010 | 10 | N 5.5 | |



